Showing default

PORCUPINE 2, 1577

Orbit data source: Space-Track

PORCUPINE 2, 1577 is a payload satellite owned by NRL (US) in LEO that was launched on Fri, 13 Aug 1965 UTC via a THOR ABLESTAR launch vehicle from the Air Force Western Test Range (AFWTR). Payload-class satellites include a variety of spacecraft equipped with specific instruments for various scientific and technological missions. These include communications satellites like Starlink; space stations such as the ISS; scientific satellites like the Hubble; Earth observation satellites from companies like Planet Labs, Umbra, and HawkEye 360; GPS; miniature CubeSats for education and research; and military/defense satellites.

Loading next visibility...
Identifier
1577, 1965-065J
Orbit
LEO
Country
Flag of USUS
Related business
Manufacturer
NRL
Mission
Defense Calibration
Bus & Motor
SURCAL, Unknown motor
Mass
5 kg wet, 5 kg dry
Launch date (UTC)
1965-08-13 (60 years ago)
Launch vehicle
THOR ABLESTAR
Launch site
Air Force Western Test Range (AFWTR)
Object type
Payload
Rocket body
Debris
Shape & HBR
Box, 0.1 m
Radar Cross Section
0.060 m², Medium (>0.1 m² and < 1m²)

Expand to show TLE details & history
Last TLE update: 15 hours ago

TLE from 15 hours ago
0 PORCUPINE 2
1 01577U 65065J   25259.93652606  .00000121  00000-0  21495-3 0  9990
2 01577  90.0153 211.4236 0070735 153.1412 278.5511 13.36190956926164
Epoch: 2025-09-16T22:28Z
TLE epoch observation values (Epoch: 2025-09-16T22:28:35.851Z)
Latitude
70.95675°
Longitude
-121.88955°
Altitude
1,128.322 km
Speed
7.298 km/s
True Right ascension
14h 05m 31s
True Declination
70° 51' 20"
Sunlit
Object was in daylight at epoch
Visualization orbit readout
Latitude
Unknown
Longitude
Unknown
Altitude
Unknown
Speed
Unknown
Apparent Right ascension
Unknown
Apparent Declination
Unknown
Sunlit
N/A
Visualization observer readout
Local Sidereal Time
06:00:19
Azimuth
Unknown
Elevation
Unknown
Doppler factor
Unknown
Orbital elements
Apogee altitude
1,173.614 km
Perigee altitude
1,067.53 km
Semi-major axis
7,498.709 km
Eccentricity
0.00707
Inclination
90.0153°
RAAN
211.4236°
Arg. of periapsis
153.1412°
True anomaly
277.74852°
Mean anomaly
278.5511°
Eccentric anomaly
278.14991°
Mean motion
3.34244 °/min
Orbital period
107.71 mins
BSTAR
0.00021495
Loading maneuver chart data...
Computing Atmospheric mass density...
Loading historical data...
Loading historical data...
Loading historical data...
Loading historical data...
Loading historical data...
Loading historical data...
Loading historical data...

Documentation

Showing up to 5 results
|